User: anonymous   Login
Location: Brno
(49.2000°N, 16.6330°E)
Time: 09:51:57
(UTC+01:00)
Language:

RESURS DK-1 - Orbit

View from above orbital plane
View from above orbital plane
View from above satellite
View from above satellite

Ground track
Ground track

The orbit data is extracted from the following two-line orbital elements,

1 29228U 06021A   16044.24488447  .00000777  00000-0  66978-4 0  9999
2 29228  69.9364 264.2914 0004357 329.0786 151.5751 15.01771976534533
Epoch (UTC): 13 February 2016 05:52:38
Eccentricity: 0.0004357
inclination: 69.9364°
perigee height: 558 km
apogee height: 564 km
right ascension of ascending node: 264.2914°
argument of perigee: 329.0786°
revolutions per day: 15.01771976
mean anomaly at epoch: 151.5751°
orbit number at epoch: 53453

The dashed part of the orbit path shows where the satellite is in the earth's shadow,  

DLR